Weather History for Windom, MN

Change the Weather History Date:

Sunday, April 7, 2013

  Actual Average Record
Temperature  
Mean Temperature 40 °F -  
Max Temperature 50 °F 56 °F 86 °F (1991)
Min Temperature 30 °F 32 °F 12 °F (1990)
Degree Days  
Heating Degree Days 25    
Moisture  
Dew Point 36 °F    
Average Humidity 90    
Maximum Humidity 100    
Minimum Humidity 66    
Precipitation  
Precipitation 0.02 in - - ()
Sea Level Pressure  
Sea Level Pressure 29.82 in    
Wind  
Wind Speed 9 mph (ENE)    
Max Wind Speed 17 mph    
Max Gust Speed 24 mph    
Visibility 6 miles    
Events Rain    
Averages and records for this station are not official NWS values.
T = Trace of Precipitation, MM = Missing Value Source: NWS Daily Summary

Daily Weather History Graph

Daily Weather History Graph

Search for Another Location

Airport:

Trip Planner

Search our weather history database for the weather conditions in past years. The results will help you decide how hot, cold, wet, or windy it might be!

Date:

Astronomy

Apr. 07, 2013 Rise Set
Actual Time 6:50 AM CDT 7:54 PM CDT
Civil Twilight 6:21 AM CDT 8:24 PM CDT
Nautical Twilight 5:46 AM CDT 8:59 PM CDT
Astronomical Twilight 5:09 AM CDT 9:37 PM CDT
Moon 5:13 AM CDT (4/7) 5:23 PM CDT (4/7)
Length of Visible Light 14h 03m
Length of Day
13h 04m
Waning Crescent, 8% of the Moon is Illuminated
Apr 7
Waning Crescent
Apr 10
New
Apr 18
First Quarter
Apr 25
Full
May 2
Last Quarter

Hourly Weather History & Observations

Time (CDT) Temp. Windchill Dew Point Humidity Pressure Visibility Wind Dir Wind Speed Gust Speed Precip Events Conditions
12:12 AM 33.8 °F 24.8 °F 30.2 °F 87% 29.79 in 7.0 mi NW 12.7 mph - N/A   Scattered Clouds
12:33 AM 33.8 °F 27.0 °F 30.2 °F 87% 29.80 in 7.0 mi WNW 8.1 mph - N/A   Clear
12:52 AM 32.0 °F 23.6 °F 30.2 °F 93% 29.81 in 5.0 mi NW 10.4 mph - N/A   Clear
1:12 AM 32.0 °F 22.5 °F 30.2 °F 93% 29.81 in 5.0 mi NW 12.7 mph - N/A   Mostly Cloudy
1:33 AM 32.0 °F 21.2 °F 30.2 °F 93% 29.82 in 5.0 mi NW 16.1 mph 21.9 mph N/A   Overcast
1:52 AM 32.0 °F 23.0 °F 30.2 °F 93% 29.83 in 5.0 mi NW 11.5 mph - N/A   Overcast
2:12 AM 32.0 °F 23.6 °F 30.2 °F 93% 29.84 in 5.0 mi WNW 10.4 mph 18.4 mph N/A   Overcast
2:33 AM 32.0 °F 22.1 °F 30.2 °F 93% 29.85 in 5.0 mi WNW 13.8 mph - N/A   Overcast
2:52 AM 32.0 °F 23.0 °F 30.2 °F 93% 29.83 in 5.0 mi NW 11.5 mph 17.3 mph N/A   Overcast
3:12 AM 30.2 °F 20.8 °F 30.2 °F 100% 29.83 in 4.0 mi NW 11.5 mph - N/A   Overcast
3:33 AM 30.2 °F 20.2 °F 30.2 °F 100% 29.84 in 4.0 mi NW 12.7 mph - N/A   Overcast
3:52 AM 30.2 °F 19.8 °F 30.2 °F 100% 29.84 in 2.0 mi NW 13.8 mph - N/A   Overcast
4:12 AM 30.2 °F 21.3 °F 30.2 °F 100% 29.84 in 1.8 mi NW 10.4 mph - N/A   Overcast
4:33 AM 30.2 °F 21.3 °F 30.2 °F 100% 29.85 in 3.0 mi NNW 10.4 mph - N/A   Overcast
4:52 AM 30.2 °F 22.6 °F 30.2 °F 100% 29.85 in 4.0 mi NW 8.1 mph - N/A   Overcast
5:12 AM 30.2 °F 21.9 °F 30.2 °F 100% 29.85 in 4.0 mi NNW 9.2 mph - N/A   Overcast
5:32 AM 30.2 °F 22.6 °F 30.2 °F 100% 29.86 in 4.0 mi NNW 8.1 mph - N/A   Overcast
5:52 AM 30.2 °F 21.9 °F 30.2 °F 100% 29.87 in 4.0 mi NNW 9.2 mph - N/A   Overcast
6:13 AM 30.2 °F 23.4 °F 30.2 °F 100% 29.87 in 4.0 mi NW 6.9 mph - N/A   Overcast
6:32 AM 30.2 °F 24.3 °F 30.2 °F 100% 29.87 in 4.0 mi NW 5.8 mph - N/A   Overcast
6:52 AM 30.2 °F 22.6 °F 30.2 °F 100% 29.88 in 4.0 mi NNW 8.1 mph - N/A   Overcast
7:13 AM 30.2 °F 22.6 °F 30.2 °F 100% 29.88 in 3.0 mi North 8.1 mph - N/A   Overcast
7:32 AM 30.2 °F 22.6 °F 30.2 °F 100% 29.89 in 3.0 mi North 8.1 mph - N/A   Overcast
7:52 AM 30.2 °F 24.3 °F 30.2 °F 100% 29.90 in 2.0 mi North 5.8 mph - N/A   Overcast
8:13 AM 30.2 °F 26.7 °F 30.2 °F 100% 29.90 in 1.8 mi North 3.5 mph - N/A   Overcast
8:32 AM 30.2 °F 23.4 °F 30.2 °F 100% 29.90 in 1.8 mi North 6.9 mph - N/A   Overcast
8:52 AM 30.2 °F 23.4 °F 30.2 °F 100% 29.90 in 1.8 mi North 6.9 mph - N/A   Overcast
9:13 AM 30.2 °F 24.3 °F 30.2 °F 100% 29.90 in 1.8 mi NNE 5.8 mph - N/A   Overcast
9:32 AM 30.2 °F 25.4 °F 30.2 °F 100% 29.91 in 1.5 mi North 4.6 mph - N/A   Overcast
9:52 AM 30.2 °F - 30.2 °F 100% 29.92 in 2.0 mi Calm Calm - N/A   Overcast
10:13 AM 32.0 °F 27.5 °F 30.2 °F 93% 29.92 in 2.5 mi East 4.6 mph - N/A   Overcast
10:32 AM 32.0 °F - 30.2 °F 93% 29.92 in 3.0 mi Calm Calm - N/A   Overcast
10:52 AM 33.8 °F - 30.2 °F 87% 29.92 in 3.0 mi Calm Calm - N/A   Overcast
11:13 AM 33.8 °F - 32.0 °F 93% 29.91 in 3.0 mi Calm Calm - N/A   Overcast
11:32 AM 33.8 °F 28.6 °F 30.2 °F 87% 29.91 in 5.0 mi East 5.8 mph - N/A   Overcast
11:52 AM 35.6 °F 29.9 °F 32.0 °F 87% 29.90 in 5.0 mi East 6.9 mph - N/A   Overcast
12:13 PM 37.4 °F 31.4 °F 32.0 °F 81% 29.89 in 10.0 mi East 8.1 mph - N/A   Overcast
12:32 PM 37.4 °F 30.3 °F 33.8 °F 87% 29.88 in 10.0 mi East 10.4 mph - N/A   Overcast
12:52 PM 39.2 °F 32.5 °F 33.8 °F 81% 29.86 in 10.0 mi East 10.4 mph - N/A   Mostly Cloudy
1:13 PM 39.2 °F 32.5 °F 33.8 °F 81% 29.86 in 10.0 mi ESE 10.4 mph - N/A   Mostly Cloudy
1:32 PM 42.8 °F 36.2 °F 35.6 °F 76% 29.84 in 10.0 mi East 12.7 mph - N/A   Scattered Clouds
1:52 PM 42.8 °F 37.0 °F 35.6 °F 76% 29.84 in 10.0 mi East 10.4 mph - N/A   Scattered Clouds
2:13 PM 44.6 °F 38.4 °F 35.6 °F 71% 29.84 in 10.0 mi SE 12.7 mph - N/A   Clear
2:32 PM 46.4 °F 40.1 °F 37.4 °F 71% 29.82 in 10.0 mi ESE 15.0 mph - N/A   Clear
2:52 PM 48.2 °F - 37.4 °F 66% 29.81 in 10.0 mi SE 15.0 mph 18.4 mph N/A   Scattered Clouds
3:12 PM 48.2 °F - 37.4 °F 66% 29.81 in 10.0 mi SE 17.3 mph 24.2 mph N/A   Scattered Clouds
3:32 PM 48.2 °F - 37.4 °F 66% 29.80 in 10.0 mi SE 13.8 mph 18.4 mph N/A   Scattered Clouds
3:52 PM 50.0 °F - 39.2 °F 66% 29.79 in 10.0 mi ESE 13.8 mph - N/A   Scattered Clouds
4:12 PM 48.2 °F - 39.2 °F 71% 29.78 in 10.0 mi ESE 11.5 mph 16.1 mph N/A   Clear
4:32 PM 48.2 °F - 39.2 °F 71% 29.78 in 10.0 mi ESE 11.5 mph - N/A   Drizzle
4:52 PM 48.2 °F - 41.0 °F 76% 29.77 in 10.0 mi ESE 13.8 mph - N/A   Mostly Cloudy
5:13 PM 48.2 °F - 41.0 °F 76% 29.78 in 10.0 mi ESE 8.1 mph - N/A   Mostly Cloudy
5:32 PM 48.2 °F - 42.8 °F 82% 29.79 in 10.0 mi SE 5.8 mph - N/A Rain Rain
5:52 PM 48.2 °F - 42.8 °F 82% 29.78 in 7.0 mi SE 5.8 mph - N/A   Light Drizzle
6:13 PM 48.2 °F - 42.8 °F 82% 29.78 in 10.0 mi SE 5.8 mph - N/A Rain Light Rain
6:32 PM 48.2 °F - 42.8 °F 82% 29.77 in 7.0 mi ESE 4.6 mph - N/A Rain Rain
6:52 PM 46.4 °F 45.2 °F 42.8 °F 87% 29.77 in 7.0 mi ESE 3.5 mph - N/A   Drizzle
7:13 PM 46.4 °F 45.2 °F 42.8 °F 87% 29.77 in 5.0 mi ESE 3.5 mph - N/A Rain Light Rain
7:32 PM 46.4 °F - 44.6 °F 93% 29.76 in 5.0 mi Calm Calm - N/A Rain Light Rain
7:52 PM 46.4 °F - 44.6 °F 93% 29.76 in 7.0 mi Calm Calm - N/A Rain Rain
8:13 PM 46.4 °F 44.3 °F 44.6 °F 93% 29.75 in 5.0 mi ESE 4.6 mph - N/A Rain Light Rain
8:33 PM 46.4 °F 42.9 °F 42.8 °F 87% 29.75 in 5.0 mi ESE 6.9 mph - N/A Rain Light Rain
8:52 PM 46.4 °F 42.9 °F 44.6 °F 93% 29.75 in 5.0 mi ESE 6.9 mph - N/A Rain Light Rain
9:13 PM 46.4 °F 43.5 °F 44.6 °F 93% 29.74 in 5.0 mi East 5.8 mph - N/A Rain Light Rain
9:33 PM 46.4 °F 42.9 °F 44.6 °F 93% 29.74 in 4.0 mi East 6.9 mph - N/A Rain Light Rain
9:52 PM 46.4 °F 42.9 °F 44.6 °F 93% 29.73 in 4.0 mi East 6.9 mph - 0.01 in Rain Light Rain
10:13 PM 44.6 °F 39.2 °F 44.6 °F 100% 29.71 in 4.0 mi East 10.4 mph 16.1 mph 0.01 in Rain Rain
10:32 PM 44.6 °F 39.2 °F 44.6 °F 100% 29.71 in 4.0 mi East 10.4 mph - 0.01 in   Light Drizzle
10:52 PM 44.6 °F 42.2 °F 44.6 °F 100% 29.70 in 3.0 mi East 4.6 mph - 0.01 in   Light Drizzle
11:13 PM 44.6 °F 41.4 °F 44.6 °F 100% 29.70 in 2.5 mi ENE 5.8 mph - N/A   Overcast
11:32 PM 44.6 °F 43.1 °F 44.6 °F 100% 29.69 in 2.0 mi ENE 3.5 mph - N/A Rain Rain
11:52 PM 44.6 °F - 44.6 °F 100% 29.69 in 1.8 mi Calm Calm - N/A   Light Drizzle